| time (UTC) | temp C | wind direction | speed KPH | gust KPH | rain 1hr cm | rain 24hr cm | rain mn cm | humidity % | barometer mb |
| 20260906214538 | 32 | 0.0 | 3.2 | 0.00 | 0.00 | 0.00 | 32 | 1014.6 | |
| 20260906213538 | 31 | 158 | 1.6 | 6.4 | 0.00 | 0.00 | 0.00 | 31 | 1014.6 |
| 20260906212518 | 31 | 0.0 | 4.8 | 0.00 | 0.00 | 0.00 | 32 | 1014.8 | |
| 20260906211518 | 32 | 135 | 1.6 | 6.4 | 0.00 | 0.00 | 0.00 | 32 | 1015.3 |
| 20260906210519 | 32 | 0.0 | 4.8 | 0.00 | 0.00 | 0.00 | 32 | 1015.4 | |
| 20260906205520 | 32 | 158 | 1.6 | 6.4 | 0.00 | 0.00 | 0.00 | 33 | 1015.5 |
| 20260906204520 | 32 | 0.0 | 3.2 | 0.00 | 0.00 | 0.00 | 35 | 1015.9 | |
| 20260906203520 | 32 | 0.0 | 3.2 | 0.00 | 0.00 | 0.00 | 34 | 1016.0 | |
| 20260906202521 | 32 | 135 | 1.6 | 4.8 | 0.00 | 0.00 | 0.00 | 34 | 1016.1 |
| 20260906201541 | 32 | 158 | 1.6 | 3.2 | 0.00 | 0.00 | 0.00 | 36 | 1016.2 |
| 20260906200521 | 32 | 0.0 | 0.0 | 0.00 | 0.00 | 0.00 | 37 | 1016.4 | |
| 20260906195521 | 31 | 135 | 1.6 | 6.4 | 0.00 | 0.00 | 0.00 | 39 | 1016.3 |
| 20260906194520 | 32 | 0.0 | 3.2 | 0.00 | 0.00 | 0.00 | 38 | 1016.7 | |
| 20260906193520 | 31 | 0.0 | 3.2 | 0.00 | 0.00 | 0.00 | 38 | 1016.4 | |
| 20260906192520 | 31 | 180 | 1.6 | 6.4 | 0.00 | 0.00 | 0.00 | 38 | 1016.5 |
| 20260906191520 | 30 | 0.0 | 3.2 | 0.00 | 0.00 | 0.00 | 43 | 1016.4 | |
| 20260906190540 | 30 | 135 | 1.6 | 4.8 | 0.00 | 0.00 | 0.00 | 42 | 1016.5 |
| 20260906185540 | 30 | 0.0 | 3.2 | 0.00 | 0.00 | 0.00 | 45 | 1016.6 | |
| 20260906184520 | 29 | 135 | 1.6 | 4.8 | 0.00 | 0.00 | 0.00 | 46 | 1016.9 |
| 20260906183540 | 28 | 0.0 | 3.2 | 0.00 | 0.00 | 0.00 | 45 | 1016.9 | |
| 20260906182520 | 27 | 113 | 1.6 | 4.8 | 0.00 | 0.00 | 0.00 | 49 | 1017.2 |
| 20260906181520 | 27 | 0.0 | 3.2 | 0.00 | 0.00 | 0.00 | 50 | 1017.4 | |
| 20260906180520 | 26 | 0.0 | 3.2 | 0.00 | 0.00 | 0.00 | 49 | 1017.1 | |
| 20260906175520 | 27 | 158 | 1.6 | 4.8 | 0.00 | 0.00 | 0.00 | 49 | 1017.4 |
| 20260906174520 | 27 | 0.0 | 3.2 | 0.00 | 0.00 | 0.00 | 50 | 1017.8 | |
| 20260906173520 | 27 | 180 | 1.6 | 4.8 | 0.00 | 0.00 | 0.00 | 51 | 1018.1 |
| 20260906172520 | 27 | 0.0 | 4.8 | 0.00 | 0.00 | 0.00 | 50 | 1018.2 | |
| 20260906171520 | 27 | 158 | 1.6 | 4.8 | 0.00 | 0.00 | 0.00 | 52 | 1018.6 |
| 20260906170540 | 27 | 0.0 | 3.2 | 0.00 | 0.00 | 0.00 | 53 | 1018.7 | |
| 20260906165520 | 26 | 203 | 1.6 | 3.2 | 0.00 | 0.00 | 0.00 | 55 | 1018.4 |
| 20260906164520 | 26 | 0.0 | 3.2 | 0.00 | 0.00 | 0.00 | 54 | 1018.3 | |
| 20260906163520 | 25 | 158 | 1.6 | 3.2 | 0.00 | 0.00 | 0.00 | 57 | 1018.3 |
| 20260906162521 | 25 | 0.0 | 0.0 | 0.00 | 0.00 | 0.00 | 56 | 1018.2 | |
| 20260906161520 | 24 | 0.0 | 0.0 | 0.00 | 0.00 | 0.00 | 59 | 1018.0 | |
| 20260906160520 | 23 | 315 | 1.6 | 3.2 | 0.00 | 0.00 | 0.00 | 61 | 1018.0 |
| 20260906155540 | 23 | 0.0 | 3.2 | 0.00 | 0.00 | 0.00 | 60 | 1018.5 | |
| 20260906154520 | 23 | 0.0 | 0.0 | 0.00 | 0.00 | 0.00 | 61 | 1018.6 | |
| 20260906153520 | 23 | 0.0 | 0.0 | 0.00 | 0.00 | 0.00 | 62 | 1018.7 | |
| 20260906152520 | 22 | 0.0 | 1.6 | 0.00 | 0.00 | 0.00 | 63 | 1018.8 | |
| 20260906151520 | 22 | 0.0 | 0.0 | 0.00 | 0.00 | 0.00 | 64 | 1019.0 | |
| 20260906150540 | 22 | 0.0 | 0.0 | 0.00 | 0.00 | 0.00 | 65 | 1019.0 | |
| 20260906145520 | 21 | 0.0 | 0.0 | 0.00 | 0.00 | 0.00 | 68 | 1018.8 | |
| 20260906144520 | 20 | 0.0 | 0.0 | 0.00 | 0.00 | 0.00 | 70 | 1018.4 | |
| 20260906143520 | 18 | 0.0 | 0.0 | 0.00 | 0.00 | 0.00 | 76 | 1018.1 | |
| 20260906142520 | 18 | 0.0 | 1.6 | 0.00 | 0.00 | 0.00 | 76 | 1018.0 | |
| 20260906141540 | 18 | 0.0 | 1.6 | 0.00 | 0.00 | 0.00 | 76 | 1018.0 | |
| 20260906140520 | 17 | 0.0 | 0.0 | 0.00 | 0.00 | 0.00 | 77 | 1018.2 | |
| 20260906135520 | 17 | 0.0 | 0.0 | 0.00 | 0.00 | 0.00 | 77 | 1018.1 | |
| 20260906134540 | 16 | 0.0 | 1.6 | 0.00 | 0.00 | 0.00 | 78 | 1017.8 | |
| 20260906133520 | 16 | 0.0 | 0.0 | 0.00 | 0.00 | 0.00 | 80 | 1017.8 | |
| 20260906132540 | 16 | 0.0 | 0.0 | 0.00 | 0.00 | 0.00 | 81 | 1017.5 | |
| 20260906131540 | 16 | 0.0 | 0.0 | 0.00 | 0.00 | 0.00 | 80 | 1017.5 | |
| 20260906130520 | 16 | 0.0 | 0.0 | 0.00 | 0.00 | 0.00 | 79 | 1017.8 | |
| 20260906125540 | 16 | 0.0 | 0.0 | 0.00 | 0.00 | 0.00 | 79 | 1017.8 | |
| 20260906124520 | 16 | 0.0 | 0.0 | 0.00 | 0.00 | 0.00 | 78 | 1018.0 | |
| 20260906123520 | 16 | 0.0 | 0.0 | 0.00 | 0.00 | 0.00 | 75 | 1018.2 | |
| 20260906122520 | 16 | 0.0 | 0.0 | 0.00 | 0.00 | 0.00 | 76 | 1018.3 | |
| 20260906121520 | 16 | 0.0 | 0.0 | 0.00 | 0.00 | 0.00 | 79 | 1018.3 | |
| 20260906120520 | 16 | 0.0 | 0.0 | 0.00 | 0.00 | 0.00 | 79 | 1018.6 | |
| 20260906115600 | 17 | 0.0 | 0.0 | 0.00 | 0.00 | 0.00 | 78 | 1018.6 | |
| 20260906114520 | 17 | 0.0 | 0.0 | 0.00 | 0.00 | 0.00 | 77 | 1018.5 | |
| 20260906113539 | 16 | 0.0 | 0.0 | 0.00 | 0.00 | 0.00 | 81 | 1018.8 | |
| 20260906112600 | 17 | 0.0 | 0.0 | 0.00 | 0.00 | 0.00 | 81 | 1018.8 | |
| 20260906111520 | 17 | 0.0 | 0.0 | 0.00 | 0.00 | 0.00 | 81 | 1018.8 | |
| 20260906110520 | 17 | 0.0 | 0.0 | 0.00 | 0.00 | 0.00 | 80 | 1019.1 | |
| 20260906105519 | 17 | 0.0 | 0.0 | 0.00 | 0.00 | 0.00 | 80 | 1019.4 | |
| 20260906104520 | 17 | 0.0 | 0.0 | 0.00 | 0.00 | 0.00 | 78 | 1019.3 | |
| 20260906103519 | 17 | 0.0 | 0.0 | 0.00 | 0.00 | 0.00 | 76 | 1019.3 | |
| 20260906102519 | 17 | 0.0 | 1.6 | 0.00 | 0.00 | 0.00 | 72 | 1019.2 | |
| 20260906101540 | 17 | 0.0 | 0.0 | 0.00 | 0.00 | 0.00 | 72 | 1019.4 | |
| 20260906100520 | 17 | 0.0 | 0.0 | 0.00 | 0.00 | 0.00 | 71 | 1019.7 | |
| 20260906095519 | 17 | 0.0 | 0.0 | 0.00 | 0.00 | 0.00 | 71 | 1019.5 | |
| 20260906094519 | 18 | 0.0 | 0.0 | 0.00 | 0.00 | 0.00 | 70 | 1019.4 | |
| 20260906093559 | 18 | 0.0 | 0.0 | 0.00 | 0.00 | 0.00 | 69 | 1019.6 | |
| 20260906092519 | 18 | 0.0 | 0.0 | 0.00 | 0.00 | 0.00 | 68 | 1019.8 | |
| 20260906091520 | 18 | 0.0 | 0.0 | 0.00 | 0.00 | 0.00 | 68 | 1019.7 | |
| 20260906090520 | 18 | 0.0 | 0.0 | 0.00 | 0.00 | 0.00 | 67 | 1019.5 | |
| 20260906085519 | 18 | 0.0 | 0.0 | 0.00 | 0.00 | 0.00 | 66 | 1019.4 | |
| 20260906084519 | 19 | 0.0 | 0.0 | 0.00 | 0.00 | 0.00 | 65 | 1019.8 | |
| 20260906083519 | 19 | 0.0 | 0.0 | 0.00 | 0.00 | 0.00 | 64 | 1019.5 | |
| 20260906082519 | 19 | 0.0 | 0.0 | 0.00 | 0.00 | 0.00 | 63 | 1019.6 | |
| 20260906081519 | 20 | 0.0 | 0.0 | 0.00 | 0.00 | 0.00 | 62 | 1019.7 | |
| 20260906080519 | 20 | 0.0 | 0.0 | 0.00 | 0.00 | 0.00 | 62 | 1020.0 | |
| 20260906075520 | 20 | 0.0 | 0.0 | 0.00 | 0.00 | 0.00 | 63 | 1020.0 | |
| 20260906074519 | 20 | 0.0 | 0.0 | 0.00 | 0.00 | 0.00 | 60 | 1019.8 | |
| 20260906073519 | 20 | 0.0 | 0.0 | 0.00 | 0.00 | 0.00 | 59 | 1019.6 | |
| 20260906072520 | 20 | 0.0 | 1.6 | 0.00 | 0.00 | 0.00 | 58 | 1019.5 | |
| 20260906071519 | 20 | 315 | 1.6 | 3.2 | 0.00 | 0.00 | 0.00 | 56 | 1019.5 |
| 20260906070519 | 20 | 0.0 | 0.0 | 0.00 | 0.00 | 0.00 | 57 | 1019.8 | |
| 20260906065519 | 20 | 0.0 | 0.0 | 0.00 | 0.00 | 0.00 | 60 | 1019.9 | |
| 20260906064519 | 20 | 0.0 | 0.0 | 0.00 | 0.00 | 0.00 | 58 | 1019.8 | |
| 20260906063519 | 20 | 0.0 | 0.0 | 0.00 | 0.00 | 0.00 | 58 | 1019.7 | |
| 20260906062519 | 20 | 0.0 | 0.0 | 0.00 | 0.00 | 0.00 | 57 | 1019.6 | |
| 20260906061519 | 20 | 0.0 | 0.0 | 0.00 | 0.00 | 0.00 | 56 | 1019.7 | |
| 20260906060520 | 21 | 0.0 | 0.0 | 0.00 | 0.00 | 0.00 | 55 | 1019.3 | |
| 20260906055519 | 21 | 0.0 | 1.6 | 0.00 | 0.00 | 0.00 | 54 | 1019.1 | |
| 20260906054539 | 21 | 0.0 | 0.0 | 0.00 | 0.00 | 0.00 | 52 | 1019.2 | |
| 20260906053539 | 21 | 0.0 | 0.0 | 0.00 | 0.00 | 0.00 | 51 | 1019.5 | |
| 20260906052519 | 21 | 0.0 | 0.0 | 0.00 | 0.00 | 0.00 | 50 | 1019.6 | |
| 20260906051519 | 21 | 0.0 | 1.6 | 0.00 | 0.00 | 0.00 | 49 | 1019.4 | |
| 20260906050519 | 21 | 0.0 | 1.6 | 0.00 | 0.00 | 0.00 | 50 | 1018.8 | |
| 20260906045519 | 21 | 0.0 | 1.6 | 0.00 | 0.00 | 0.00 | 50 | 1018.2 | |
| 20260906044519 | 21 | 0.0 | 0.0 | 0.00 | 0.00 | 0.00 | 50 | 1018.2 | |
| 20260906043520 | 22 | 0.0 | 0.0 | 0.00 | 0.00 | 0.00 | 48 | 1017.8 | |
| 20260906042519 | 22 | 0.0 | 0.0 | 0.00 | 0.00 | 0.00 | 48 | 1017.8 | |
| 20260906041519 | 22 | 0.0 | 0.0 | 0.00 | 0.00 | 0.00 | 48 | 1017.6 | |
| 20260906040519 | 22 | 0.0 | 0.0 | 0.00 | 0.00 | 0.00 | 47 | 1017.1 | |
| 20260906035519 | 23 | 0.0 | 1.6 | 0.00 | 0.00 | 0.00 | 46 | 1017.1 | |
| 20260906034519 | 23 | 0.0 | 1.6 | 0.00 | 0.00 | 0.00 | 43 | 1017.5 | |
| 20260906033539 | 23 | 0.0 | 0.0 | 0.00 | 0.00 | 0.00 | 42 | 1016.5 | |
| 20260906032519 | 24 | 0.0 | 1.6 | 0.00 | 0.00 | 0.00 | 41 | 1016.3 | |
| 20260906031519 | 24 | 0.0 | 0.0 | 0.00 | 0.00 | 0.00 | 40 | 1016.3 | |
| 20260906030519 | 25 | 0.0 | 0.0 | 0.00 | 0.00 | 0.00 | 38 | 1015.1 | |
| 20260906025519 | 25 | 0.0 | 0.0 | 0.00 | 0.00 | 0.00 | 39 | 1015.1 | |
| 20260906024519 | 25 | 0.0 | 1.6 | 0.00 | 0.00 | 0.00 | 38 | 1014.9 | |
| 20260906023519 | 25 | 0.0 | 0.0 | 0.00 | 0.00 | 0.00 | 38 | 1013.9 | |
| 20260906022519 | 25 | 0.0 | 0.0 | 0.00 | 0.00 | 0.00 | 37 | 1013.9 | |
| 20260906021519 | 26 | 0.0 | 0.0 | 0.00 | 0.00 | 0.00 | 36 | 1013.9 | |
| 20260906020519 | 26 | 0.0 | 0.0 | 0.00 | 0.00 | 0.00 | 34 | 1013.0 | |
| 20260906015519 | 26 | 0.0 | 1.6 | 0.00 | 0.00 | 0.00 | 34 | 1013.3 | |
| 20260906014519 | 27 | 0.0 | 1.6 | 0.00 | 0.00 | 0.00 | 33 | 1013.1 | |
| 20260906013519 | 27 | 0.0 | 1.6 | 0.00 | 0.00 | 0.00 | 32 | 1012.8 | |
| 20260906012519 | 27 | 0.0 | 0.0 | 0.00 | 0.00 | 0.00 | 31 | 1012.7 | |
| 20260906011519 | 27 | 0.0 | 3.2 | 0.00 | 0.00 | 0.00 | 31 | 1013.1 | |
| 20260906010559 | 27 | 338 | 3.2 | 9.7 | 0.00 | 0.00 | 0.00 | 31 | 1013.3 |
| 20260906005519 | 27 | 0.0 | 4.8 | 0.00 | 0.00 | 0.00 | 31 | 1013.2 | |
| 20260906004519 | 28 | 315 | 1.6 | 4.8 | 0.00 | 0.00 | 0.00 | 30 | 1013.2 |
| 20260906003519 | 28 | 293 | 1.6 | 3.2 | 0.00 | 0.00 | 0.00 | 29 | 1013.5 |
| 20260906002519 | 29 | 315 | 1.6 | 8.0 | 0.00 | 0.00 | 0.00 | 29 | 1013.3 |
| 20260906001519 | 30 | 293 | 3.2 | 11.3 | 0.00 | 0.00 | 0.00 | 27 | 1013.6 |
| 20260906000519 | 30 | 315 | 3.2 | 9.7 | 0.00 | 0.00 | 0.00 | 26 | 1014.0 |
| 20260905235519 | 31 | 315 | 1.6 | 4.8 | 0.00 | 0.00 | 0.00 | 25 | 1013.9 |
| 20260905234519 | 31 | 0.0 | 1.6 | 0.00 | 0.00 | 0.00 | 31 | 1014.4 | |
| 20260905233519 | 31 | 0.0 | 0.0 | 0.00 | 0.00 | 0.00 | 27 | 1014.1 | |
| 20260905232519 | 31 | 0.0 | 0.0 | 0.00 | 0.00 | 0.00 | 26 | 1014.3 | |
| 20260905231519 | 32 | 0.0 | 0.0 | 0.00 | 0.00 | 0.00 | 26 | 1014.1 | |
| 20260905230519 | 32 | 0.0 | 0.0 | 0.00 | 0.00 | 0.00 | 23 | 1013.8 | |
| 20260905225518 | 32 | 0.0 | 4.8 | 0.00 | 0.00 | 0.00 | 24 | 1013.8 | |
| 20260905224519 | 32 | 0.0 | 6.4 | 0.00 | 0.00 | 0.00 | 21 | 1014.0 | |
| 20260905223518 | 33 | 0.0 | 3.2 | 0.00 | 0.00 | 0.00 | 21 | 1014.3 | |
| 20260905222518 | 33 | 0.0 | 3.2 | 0.00 | 0.00 | 0.00 | 20 | 1014.3 | |
| 20260905221518 | 33 | 0.0 | 3.2 | 0.00 | 0.00 | 0.00 | 20 | 1014.3 | |
| 20260905220518 | 33 | 158 | 1.6 | 8.0 | 0.00 | 0.00 | 0.00 | 20 | 1014.7 |
| 20260905215519 | 34 | 135 | 1.6 | 4.8 | 0.00 | 0.00 | 0.00 | 20 | 1015.1 |